Change the Weather History Date:

Monday, September 16, 2013

  Actual Average Record
Temperature  
Mean Temperature 86 °F 84 °F  
Max Temperature 91 °F 89 °F 93 °F (1900)
Min Temperature 80 °F 78 °F 69 °F (1929)
Degree Days  
Heating Degree Days 0 0  
Month to date heating degree days 0 0  
Since 1 July heating degree days 0 0  
Cooling Degree Days 21 18  
Month to date cooling degree days 291 303  
Year to date cooling degree days 4207 4167  
Growing Degree Days 36 (Base 50)    
Moisture  
Dew Point 76 °F    
Average Humidity 74    
Maximum Humidity 85    
Minimum Humidity 63    
Precipitation  
Precipitation 0.01 in 0.19 in 3.38 in (1996)
Month to date precipitation 5.95 3.26  
Year to date precipitation 63.58 36.88  
Sea Level Pressure  
Sea Level Pressure 29.96 in    
Wind  
Wind Speed 7 mph (East)    
Max Wind Speed 20 mph    
Max Gust Speed 24 mph    
Visibility 10 miles    
Events      
T = Trace of Precipitation, MM = Missing Value Source: NWS Daily Summary

Daily Weather History Graph

Daily Weather History Graph

Search for Another Location

Airport or City:

Trip Planner

Search our weather history database for the weather conditions in past years. The results will help you decide how hot, cold, wet, or windy it might be!

Date:

Astronomy

Sep. 16, 2013 Rise Set
Actual Time 6:12 AM AST 6:25 PM AST
Civil Twilight 5:50 AM AST 6:47 PM AST
Nautical Twilight 5:24 AM AST 7:12 PM AST
Astronomical Twilight 4:59 AM AST 7:38 PM AST
Moon 4:15 PM AST (9/16) 3:14 AM AST (9/16)
Length of Visible Light 12h 56m
Length of Day
12h 13m
Waxing Gibbous, 90% of the Moon is Illuminated
Sep 16
Waxing Gibbous
Sep 19
Full
Sep 26
Last Quarter
Oct 4
New
Oct 11
First Quarter

Hourly Weather History & Observations

Time (AST) Temp. Heat Index Dew Point Humidity Pressure Visibility Wind Dir Wind Speed Gust Speed Precip Events Conditions
12:56 AM 82.0 °F 88.6 °F 75.0 °F 79% 29.99 in 10.0 mi SSE 3.5 mph - N/A   Scattered Clouds
1:56 AM 82.0 °F 88.6 °F 75.0 °F 79% 29.98 in 10.0 mi Calm Calm - N/A   Scattered Clouds
2:56 AM 81.0 °F 86.7 °F 75.0 °F 82% 29.96 in 10.0 mi Calm Calm - N/A   Scattered Clouds
3:56 AM 80.1 °F 85.1 °F 75.0 °F 85% 29.96 in 10.0 mi Calm Calm - N/A   Scattered Clouds
4:56 AM 80.1 °F 85.1 °F 75.0 °F 85% 29.96 in 10.0 mi Calm Calm - N/A   Partly Cloudy
5:56 AM 80.1 °F 85.1 °F 75.0 °F 85% 29.97 in 10.0 mi Calm Calm - N/A   Scattered Clouds
6:56 AM 80.1 °F 85.1 °F 75.0 °F 85% 29.98 in 10.0 mi Calm Calm - N/A   Scattered Clouds
7:56 AM 82.9 °F 90.8 °F 75.9 °F 79% 29.99 in 10.0 mi ESE 4.6 mph - N/A   Scattered Clouds
8:56 AM 84.9 °F 95.3 °F 77.0 °F 77% 30.01 in 10.0 mi East 8.1 mph - N/A   Scattered Clouds
9:56 AM 86.0 °F 96.9 °F 77.0 °F 74% 30.01 in 10.0 mi ENE 9.2 mph - N/A   Scattered Clouds
10:56 AM 89.1 °F 101.4 °F 77.0 °F 67% 30.01 in 10.0 mi East 13.8 mph - N/A   Scattered Clouds
11:56 AM 90.0 °F 100.2 °F 75.0 °F 61% 29.99 in 10.0 mi East 15.0 mph - N/A   Scattered Clouds
12:56 PM 87.1 °F 94.5 °F 73.0 °F 63% 29.98 in 10.0 mi SSE 5.8 mph - N/A   Scattered Clouds
1:56 PM 89.1 °F 99.1 °F 75.0 °F 63% 29.93 in 10.0 mi ESE 9.2 mph 21.9 mph N/A   Scattered Clouds
2:56 PM 88.0 °F 98.5 °F 75.9 °F 67% 29.91 in 10.0 mi East 13.8 mph - N/A   Scattered Clouds
3:56 PM 87.1 °F 96.3 °F 75.0 °F 67% 29.91 in 10.0 mi ENE 16.1 mph - N/A   Mostly Cloudy
4:56 PM 86.0 °F 96.0 °F 75.9 °F 72% 29.90 in 10.0 mi ENE 15.0 mph - N/A   Mostly Cloudy
5:56 PM 84.9 °F 94.1 °F 75.9 °F 74% 29.91 in 10.0 mi East 12.7 mph - N/A   Mostly Cloudy
6:56 PM 84.0 °F 92.6 °F 75.9 °F 76% 29.93 in 10.0 mi East 8.1 mph - N/A   Scattered Clouds
7:56 PM 82.9 °F 91.8 °F 77.0 °F 82% 29.94 in 10.0 mi East 6.9 mph - N/A   Scattered Clouds
8:56 PM 82.9 °F 90.8 °F 75.9 °F 79% 29.97 in 10.0 mi ESE 5.8 mph - N/A   Scattered Clouds
9:56 PM 82.9 °F 91.8 °F 77.0 °F 82% 29.97 in 10.0 mi East 6.9 mph - N/A   Partly Cloudy
10:56 PM 82.0 °F 89.4 °F 75.9 °F 82% 29.97 in 10.0 mi ESE 4.6 mph - 0.01 in   Scattered Clouds
11:56 PM 82.0 °F 89.4 °F 75.9 °F 82% 29.96 in 10.0 mi Calm Calm - N/A   Partly Cloudy